La Porte, IN

2:14 AM CST on February 12, 2016 (GMT -0600)
La Porte Municipal

Weather History for KPPO - November, 2013

Change the Weather History Date:

Thursday, November 14, 2013

  Actual Average (KVPZ) Record (KVPZ)
Temperature  
Mean Temperature 36 °F 42 °F  
Max Temperature 46 °F 50 °F 65 °F (2009)
Min Temperature 26 °F 34 °F 18 °F (2014)
Degree Days  
Heating Degree Days 29 23  
Month to date heating degree days 287  
Since 1 July heating degree days 817  
Cooling Degree Days 0 0  
Month to date cooling degree days 0  
Year to date cooling degree days 713  
Moisture  
Dew Point 23 °F    
Average Humidity 59    
Maximum Humidity 71    
Minimum Humidity 46    
Precipitation  
Precipitation 0.00 in 0.11 in 0.22 in (2005)
Month to date precipitation 1.71  
Year to date precipitation 33.71  
Sea Level Pressure  
Sea Level Pressure 30.08 in    
Wind  
Wind Speed 12 mph (SSW)    
Max Wind Speed 18 mph    
Max Gust Speed 25 mph    
Visibility 10 miles    
Events      
T = Trace of Precipitation, MM = Missing Value Source: NWS Daily Summary

Daily Weather History Graph

Daily Weather History Graph

Search for Another Location

Airport or City:

Trip Planner

Search our weather history database for the weather conditions in past years. The results will help you decide how hot, cold, wet, or windy it might be!

Date:

Astronomy

Nov. 14, 2013 Rise Set
Actual Time 6:34 AM CST 4:27 PM CST
Civil Twilight 6:05 AM CST 4:57 PM CST
Nautical Twilight 5:31 AM CST 5:30 PM CST
Astronomical Twilight 4:58 AM CST 6:03 PM CST
Moon 2:50 PM CST (11/14) 3:27 AM CST (11/14)
Length of Visible Light 10h 52m
Length of Day
9h 52m
Waxing Gibbous, 92% of the Moon is Illuminated
Nov 14
Waxing Gibbous
Nov 17
Full
Nov 25
Last Quarter
Dec 2
New
Dec 9
First Quarter

Hourly Weather History & Observations

Time (CST) Temp. Windchill Dew Point Humidity Pressure Visibility Wind Dir Wind Speed Gust Speed Precip Events Conditions
12:15 AM 29.8 °F 18.0 °F 18.9 °F 64% 30.21 in 10.0 mi SW 17.3 mph 21.9 mph N/A   Mostly Cloudy
12:35 AM 30.0 °F 19.1 °F 18.9 °F 63% 30.21 in 10.0 mi SSW 15.0 mph 23.0 mph N/A   Mostly Cloudy
12:55 AM 29.7 °F 19.6 °F 18.9 °F 64% 30.20 in 10.0 mi SSW 12.7 mph - N/A   Mostly Cloudy
1:15 AM 29.3 °F 20.2 °F 18.5 °F 64% 30.21 in 10.0 mi SSW 10.4 mph - N/A   Mostly Cloudy
1:35 AM 29.3 °F 20.8 °F 18.5 °F 64% 30.21 in 10.0 mi SSW 9.2 mph - N/A   Mostly Cloudy
1:55 AM 28.9 °F 19.8 °F 18.5 °F 65% 30.21 in 10.0 mi SSW 10.4 mph - N/A   Mostly Cloudy
2:15 AM 29.1 °F 19.4 °F 18.5 °F 65% 30.20 in 10.0 mi SSW 11.5 mph - N/A   Mostly Cloudy
2:35 AM 28.8 °F 20.2 °F 18.5 °F 66% 30.20 in 10.0 mi SSW 9.2 mph - N/A   Overcast
2:55 AM 28.6 °F 19.9 °F 18.5 °F 66% 30.20 in 10.0 mi SSW 9.2 mph - N/A   Mostly Cloudy
3:15 AM 28.4 °F 18.5 °F 18.9 °F 67% 30.19 in 10.0 mi SSW 11.5 mph - N/A   Mostly Cloudy
3:35 AM 28.4 °F 18.5 °F 19.0 °F 68% 30.18 in 10.0 mi SSW 11.5 mph - N/A   Mostly Cloudy
3:55 AM 27.9 °F 19.8 °F 18.7 °F 68% 30.18 in 10.0 mi SSW 8.1 mph - N/A   Mostly Cloudy
4:15 AM 27.9 °F 19.1 °F 18.7 °F 68% 30.18 in 10.0 mi SSW 9.2 mph - N/A   Mostly Cloudy
4:35 AM 27.5 °F 20.2 °F 18.5 °F 69% 30.17 in 10.0 mi SSW 6.9 mph - N/A   Mostly Cloudy
4:55 AM 27.7 °F 20.4 °F 18.5 °F 68% 30.16 in 10.0 mi SSW 6.9 mph - N/A   Overcast
5:15 AM 27.9 °F 19.8 °F 18.5 °F 68% 30.15 in 10.0 mi SSW 8.1 mph - N/A   Mostly Cloudy
5:35 AM 27.1 °F 20.7 °F 18.3 °F 69% 30.15 in 10.0 mi SSW 5.8 mph - N/A   Mostly Cloudy
5:55 AM 26.8 °F 19.3 °F 18.3 °F 70% 30.14 in 10.0 mi SSW 6.9 mph - N/A   Mostly Cloudy
6:15 AM 27.1 °F 18.9 °F 18.5 °F 70% 30.14 in 10.0 mi SSW 8.1 mph - N/A   Mostly Cloudy
6:35 AM 27.1 °F 17.5 °F 18.9 °F 71% 30.14 in 10.0 mi SSW 10.4 mph - N/A   Scattered Clouds
6:55 AM 28.2 °F 17.7 °F 19.2 °F 69% 30.14 in 10.0 mi SSW 12.7 mph - N/A   Scattered Clouds
7:15 AM 29.3 °F 19.6 °F 19.6 °F 67% 30.14 in 10.0 mi SW 11.5 mph - N/A   Clear
7:35 AM 30.2 °F 20.2 °F 19.8 °F 65% 30.14 in 10.0 mi SW 12.7 mph 18.4 mph N/A   Clear
7:55 AM 31.1 °F 21.4 °F 20.1 °F 64% 30.14 in 10.0 mi SW 12.7 mph 20.7 mph N/A   Clear
8:15 AM 32.0 °F 22.1 °F 20.3 °F 62% 30.14 in 10.0 mi SSW 13.8 mph 19.6 mph N/A   Clear
8:35 AM 32.0 °F 20.5 °F 20.8 °F 63% 30.14 in 10.0 mi SW 18.4 mph 24.2 mph N/A   Clear
8:55 AM 32.7 °F 21.8 °F 21.2 °F 63% 30.14 in 10.0 mi SW 17.3 mph 20.7 mph N/A   Clear
9:15 AM 33.6 °F 24.1 °F 21.6 °F 61% 30.13 in 10.0 mi SW 13.8 mph - N/A   Clear
9:35 AM 34.5 °F 24.1 °F 22.1 °F 61% 30.13 in 10.0 mi SW 17.3 mph 20.7 mph N/A   Clear
9:55 AM 35.1 °F 25.5 °F 22.6 °F 61% 30.13 in 10.0 mi SW 15.0 mph 25.3 mph N/A   Clear
10:15 AM 36.0 °F 26.3 °F 22.8 °F 59% 30.12 in 10.0 mi SW 16.1 mph 20.7 mph N/A   Clear
10:35 AM 36.9 °F 27.8 °F 23.2 °F 58% 30.11 in 10.0 mi SW 15.0 mph - N/A   Clear
10:55 AM 37.8 °F 29.0 °F 23.2 °F 56% 30.09 in 10.0 mi SSW 15.0 mph 20.7 mph N/A   Clear
11:15 AM 38.7 °F 29.1 °F 23.0 °F 53% 30.08 in 10.0 mi SW 18.4 mph 24.2 mph N/A   Clear
11:35 AM 39.4 °F 31.1 °F 23.4 °F 53% 30.07 in 10.0 mi SSW 15.0 mph 23.0 mph N/A   Clear
11:55 AM 40.3 °F 33.0 °F 23.5 °F 51% 30.06 in 10.0 mi SSW 12.7 mph - N/A   Clear
12:15 PM 41.2 °F 33.7 °F 24.4 °F 51% 30.05 in 10.0 mi SSW 13.8 mph 19.6 mph N/A   Clear
12:35 PM 42.1 °F 35.2 °F 25.0 °F 51% 30.04 in 10.0 mi SSW 12.7 mph 18.4 mph N/A   Clear
12:55 PM 43.2 °F 35.6 °F 24.8 °F 48% 30.03 in 10.0 mi SSW 16.1 mph 24.2 mph N/A   Clear
1:15 PM 43.7 °F 36.9 °F 25.3 °F 48% 30.02 in 10.0 mi SSW 13.8 mph 23.0 mph N/A   Clear
1:35 PM 44.1 °F 37.7 °F 26.8 °F 51% 30.01 in 10.0 mi SSW 12.7 mph 20.7 mph N/A   Clear
1:55 PM 45.3 °F 38.4 °F 27.3 °F 49% 30.01 in 10.0 mi SSW 16.1 mph 20.7 mph N/A   Clear
2:15 PM 45.5 °F 39.2 °F 27.7 °F 50% 30.01 in 10.0 mi SW 13.8 mph 19.6 mph N/A   Clear
2:35 PM 45.5 °F 39.9 °F 27.9 °F 50% 30.00 in 10.0 mi SSW 11.5 mph - N/A   Clear
2:55 PM 46.6 °F - 28.9 °F 50% 29.99 in 10.0 mi SSW 11.5 mph - N/A   Clear
3:15 PM 46.9 °F - 28.2 °F 48% 29.99 in 10.0 mi SSW 16.1 mph 19.6 mph N/A   Clear
3:35 PM 46.4 °F 39.5 °F 26.6 °F 46% 29.99 in 10.0 mi SSW 17.3 mph 23.0 mph N/A   Clear
3:55 PM 45.3 °F 38.4 °F 26.1 °F 47% 30.00 in 10.0 mi SW 16.1 mph 20.7 mph N/A   Clear
4:15 PM 44.2 °F 38.4 °F 26.2 °F 49% 30.00 in 10.0 mi SSW 11.5 mph - N/A   Clear
4:35 PM 43.0 °F 38.2 °F 26.6 °F 52% 30.01 in 10.0 mi SSW 8.1 mph - N/A   Clear
4:55 PM 42.4 °F 37.0 °F 26.8 °F 54% 30.01 in 10.0 mi SSW 9.2 mph - N/A   Scattered Clouds
5:15 PM 42.3 °F 36.3 °F 26.4 °F 54% 30.01 in 10.0 mi SSW 10.4 mph - N/A   Scattered Clouds
5:35 PM 42.1 °F 35.7 °F 25.9 °F 53% 30.01 in 10.0 mi SSW 11.5 mph - N/A   Scattered Clouds
5:55 PM 42.1 °F 35.2 °F 25.3 °F 52% 29.99 in 10.0 mi SSW 12.7 mph 18.4 mph N/A   Clear
6:15 PM 42.1 °F 35.7 °F 25.2 °F 51% 30.01 in 10.0 mi SSW 11.5 mph 18.4 mph N/A   Clear
6:35 PM 41.4 °F 35.7 °F 25.0 °F 52% 30.01 in 10.0 mi SSW 9.2 mph - N/A   Clear
6:55 PM 41.0 °F 34.7 °F 25.0 °F 53% 30.01 in 10.0 mi SSW 10.4 mph 16.1 mph N/A   Clear
7:15 PM 41.0 °F 35.2 °F 24.8 °F 53% 30.01 in 10.0 mi SSW 9.2 mph - N/A   Clear
7:35 PM 40.1 °F 34.1 °F 25.2 °F 55% 30.02 in 10.0 mi SSW 9.2 mph - N/A   Clear
7:55 PM 39.4 °F 34.5 °F 25.2 °F 57% 30.02 in 10.0 mi SSW 6.9 mph - N/A   Clear
8:15 PM 39.0 °F 32.8 °F 25.3 °F 58% 30.02 in 10.0 mi SSW 9.2 mph - N/A   Clear
8:35 PM 38.7 °F 32.4 °F 25.5 °F 59% 30.03 in 10.0 mi SSW 9.2 mph - N/A   Clear
8:55 PM 38.8 °F 33.2 °F 25.3 °F 58% 30.03 in 10.0 mi SSW 8.1 mph - N/A   Clear
9:15 PM 38.7 °F 33.6 °F 25.3 °F 59% 30.03 in 10.0 mi SSW 6.9 mph - N/A   Clear
9:35 PM 38.3 °F 33.2 °F 25.2 °F 59% 30.02 in 10.0 mi SSW 6.9 mph - N/A   Clear
9:55 PM 38.3 °F 33.9 °F 25.0 °F 59% 30.02 in 10.0 mi SSW 5.8 mph - N/A   Clear
10:15 PM 37.6 °F 32.3 °F 25.2 °F 61% 30.02 in 10.0 mi SSW 6.9 mph - N/A   Clear
10:35 PM 38.3 °F 31.9 °F 24.8 °F 58% 30.01 in 10.0 mi SSW 9.2 mph - N/A   Clear
10:55 PM 38.7 °F 31.8 °F 25.3 °F 59% 30.01 in 10.0 mi SW 10.4 mph - N/A   Clear
11:15 PM 39.2 °F 31.6 °F 24.8 °F 56% 30.02 in 10.0 mi SW 12.7 mph 19.6 mph N/A   Clear
11:35 PM 39.0 °F 31.0 °F 24.8 °F 57% 30.02 in 10.0 mi SW 13.8 mph 19.6 mph N/A   Clear
11:55 PM 38.5 °F 30.3 °F 25.2 °F 59% 30.02 in 10.0 mi SW 13.8 mph 18.4 mph N/A   Clear